sat.trackr.live / text

‹ back to catalog

USA 164 (MILSTAR-2 3)

NORAD 27168 · 2002-001A

PAYLOAD ACTIVE UNKNOWN

§ Identity

Operator
Country
US
Launch date
2002-01-16
Launch site
AFETR
Launch vehicle
Mass (kg)
RCS (m²)

Purposes: comms

External: N2YO · Heavens-Above · Gunter

§ Orbital elements

Epoch: 2026-05-24T20:59:11.114016Z

Period
1,436.14 min
Inclination
11.1529°
Eccentricity
0.0100034
Mean motion
1.00268571 rev/d
Perigee alt
35,365.7 km
Apogee alt
36,209.3 km
Semi-major
42,165.6 km
B*
0.0000e+0
RAAN
22.0545°
Arg perigee
7.4896°
Mean anomaly
186.6848°
Rev number
3,272

§ Raw data

USA 164 (MILSTAR-2 3)1 27168U 02001A   26144.87443419  .00000021  00000+0  00000+0 0  99952 27168  11.1529  22.0545 0100034   7.4896 186.6848  1.00268571 32720

JSON: /api/v1/satellites/27168 · /tle

For live sub-satellite position, see the globe view (requires WebGL).

§ Visibility from observer

Set your observer location to see the next 7 days of passes ≥ 10°. The values pass through the URL so the page stays shareable.

No JS? Fill the form by hand. The geolocation button needs JavaScript.